NORTHEAST SUFFOLK  -  Winter Storm Watch Winter Storm Watch        NORTHERN NASSAU  -  Winter Storm Watch Winter Storm Watch        NORTHERN QUEENS  -  Winter Storm Watch Winter Storm Watch        NORTHWEST SUFFOLK  -  Winter Storm Watch Winter Storm Watch        SOUTHEAST SUFFOLK  -  Winter Storm Watch Winter Storm Watch        SOUTHERN NASSAU  -  Winter Storm Watch Winter Storm Watch        SOUTHERN QUEENS  -  Winter Storm Watch Winter Storm Watch        SOUTHWEST SUFFOLK  -  Winter Storm Watch Winter Storm Watch      

Active alerts

Northern Queens
  Details for Northern Queens Winter Storm Watch
Southern Queens
  Details for Southern Queens Winter Storm Watch
Northern Nassau
  Details for Northern Nassau Winter Storm Watch
Southern Nassau
  Details for Southern Nassau Winter Storm Watch
Northwest Suffolk
  Details for Northwest Suffolk Winter Storm Watch
Southwest Suffolk
  Details for Southwest Suffolk Winter Storm Watch
Northeast Suffolk
  Details for Northeast Suffolk Winter Storm Watch
Southeast Suffolk
  Details for Southeast Suffolk Winter Storm Watch


WXM80 ListenWXM80 Stop

You find our weather info also at:

UK Metoffice

WeatherCloud

Weather Underground

Northeastern Weather Network

AWEKAS

Citizen Weather Observer Program (CWOP)

HAMweather, WeatherForYou, PWS Weather


Weather Underground History page Text

Daily Summary for February 4, 2018 Units:  English    Metric   Both
« Previous Day
Next Day »
Daily Weekly Monthly Yearly Custom
  High: Low: Average:
Temperature: 48.5 °F 30.1 °F 40.1 °F
Dew Point: 47.7 °F 18.3 °F 32.9 °F
Humidity: 97 % 59 % 76 %
Wind Speed: 7.5 mph 0.0 mph 2.6 mph
Wind Gust: 13.0 mph - -
Wind:- - SSW
Pressure: 30.11 in 29.33 in -
Precipitation: 0.82 in    
Historical Graphs
 
 
Tabular Data for February 4, 2018
Time Temperature Dew Point Pressure Wind Wind Speed Wind Gust Humidity Rainfall Rate (Hourly)
00:03 30.1 °F 18.3 °F 30.10 in SSW 5.2 mph 11.5 mph 61 % 0.00 in
00:08 30.2 °F 18.7 °F 30.11 in SW 3.2 mph 5.0 mph 62 % 0.00 in
00:13 30.3 °F 19.2 °F 30.11 in SSW 2.8 mph 5.8 mph 63 % 0.00 in
00:18 30.4 °F 19.3 °F 30.10 in SSW 5.7 mph 11.5 mph 63 % 0.00 in
00:23 30.5 °F 19.8 °F 30.10 in SSW 6.2 mph 9.2 mph 64 % 0.00 in
00:28 30.6 °F 19.9 °F 30.10 in SW 1.5 mph 8.0 mph 64 % 0.00 in
00:33 30.7 °F 20.0 °F 30.10 in SSW 5.5 mph 5.8 mph 64 % 0.00 in
00:38 30.8 °F 19.7 °F 30.10 in SSW 3.2 mph 5.0 mph 63 % 0.00 in
00:44 30.9 °F 19.8 °F 30.10 in SSW 3.5 mph 7.0 mph 63 % 0.00 in
00:49 30.9 °F 19.8 °F 30.10 in SSW 3.5 mph 3.5 mph 63 % 0.00 in
00:54 31.0 °F 19.9 °F 30.10 in SW 1.8 mph 6.9 mph 63 % 0.00 in
00:59 31.0 °F 19.9 °F 30.10 in South 3.4 mph 8.1 mph 63 % 0.00 in
01:04 31.1 °F 19.6 °F 30.10 in SW 4.1 mph 8.1 mph 62 % 0.00 in
01:09 31.2 °F 19.3 °F 30.10 in SSW 2.8 mph 7.0 mph 61 % 0.00 in
01:14 31.3 °F 19.4 °F 30.10 in SSW 2.1 mph 5.8 mph 61 % 0.00 in
01:19 31.3 °F 19.0 °F 30.10 in SSW 5.2 mph 7.0 mph 60 % 0.00 in
01:24 31.3 °F 19.0 °F 30.10 in SW 3.5 mph 8.0 mph 60 % 0.00 in
01:29 31.4 °F 19.1 °F 30.09 in SSW 2.5 mph 4.6 mph 60 % 0.00 in
01:34 31.4 °F 19.1 °F 30.09 in SSW 4.5 mph 5.8 mph 60 % 0.00 in
01:39 31.3 °F 19.0 °F 30.10 in SSW 5.7 mph 10.4 mph 60 % 0.00 in
01:44 31.4 °F 19.1 °F 30.09 in SSW 4.3 mph 8.1 mph 60 % 0.00 in
01:49 31.4 °F 19.1 °F 30.09 in SW 4.4 mph 6.0 mph 60 % 0.00 in
01:54 31.3 °F 19.0 °F 30.09 in SSW 1.1 mph 5.8 mph 60 % 0.00 in
01:59 31.4 °F 19.1 °F 30.09 in SSW 1.8 mph 4.0 mph 60 % 0.00 in
02:04 31.4 °F 19.5 °F 30.09 in SW 4.1 mph 5.8 mph 61 % 0.00 in
02:10 31.4 °F 19.5 °F 30.09 in South 0.8 mph 3.5 mph 61 % 0.00 in
02:15 31.4 °F 19.5 °F 30.09 in SSW 2.5 mph 5.8 mph 61 % 0.00 in
02:20 31.4 °F 19.5 °F 30.08 in South 3.4 mph 5.8 mph 61 % 0.00 in
02:25 31.5 °F 19.6 °F 30.08 in SSW 3.2 mph 8.1 mph 61 % 0.00 in
02:30 31.5 °F 19.6 °F 30.08 in South 2.5 mph 4.6 mph 61 % 0.00 in
02:35 31.5 °F 19.2 °F 30.08 in SSW 3.6 mph 5.8 mph 60 % 0.00 in
02:40 31.5 °F 19.2 °F 30.08 in SSW 3.0 mph 5.8 mph 60 % 0.00 in
02:45 31.6 °F 19.3 °F 30.08 in SW 2.3 mph 4.6 mph 60 % 0.00 in
02:50 31.6 °F 19.3 °F 30.08 in SSW 2.6 mph 4.0 mph 60 % 0.00 in
02:55 31.6 °F 19.3 °F 30.08 in SSW 1.8 mph 3.5 mph 60 % 0.00 in
03:00 31.6 °F 19.3 °F 30.08 in SSW 1.3 mph 3.5 mph 60 % 0.00 in
03:05 31.7 °F 19.8 °F 30.08 in SSW 3.7 mph 4.0 mph 61 % 0.00 in
03:10 31.7 °F 19.8 °F 30.08 in SW 3.4 mph 4.6 mph 61 % 0.00 in
03:15 31.7 °F 19.8 °F 30.07 in SW 0.8 mph 3.5 mph 61 % 0.00 in
03:20 31.7 °F 19.8 °F 30.07 in Calm     61 % 0.00 in
03:25 31.7 °F 20.2 °F 30.08 in SSW 0.8 mph 3.5 mph 62 % 0.00 in
03:31 31.8 °F 20.3 °F 30.09 in WSW 2.9 mph 5.0 mph 62 % 0.00 in
03:36 31.9 °F 20.3 °F 30.08 in SW 1.0 mph 5.0 mph 62 % 0.00 in
03:41 32.0 °F 20.4 °F 30.07 in Calm   4.0 mph 62 % 0.00 in
03:46 32.1 °F 20.9 °F 30.07 in SSW 1.0 mph 6.0 mph 63 % 0.00 in
03:51 32.1 °F 20.9 °F 30.07 in SSW 1.0 mph 6.0 mph 63 % 0.00 in
03:56 32.2 °F 21.0 °F 30.07 in SW 2.0 mph 3.5 mph 63 % 0.00 in
04:01 32.3 °F 21.1 °F 30.06 in SSW 2.5 mph 5.8 mph 63 % 0.00 in
04:06 32.4 °F 21.2 °F 30.06 in South 2.4 mph 8.1 mph 63 % 0.00 in
04:11 32.5 °F 21.3 °F 30.06 in SW 3.8 mph 5.8 mph 63 % 0.00 in
04:16 32.6 °F 21.0 °F 30.07 in SW 2.5 mph 6.9 mph 62 % 0.00 in
04:21 32.7 °F 21.1 °F 30.06 in SW 3.3 mph 5.8 mph 62 % 0.00 in
04:26 32.8 °F 21.2 °F 30.06 in SSW 2.2 mph 5.8 mph 62 % 0.00 in
04:31 32.8 °F 21.2 °F 30.07 in WSW 5.4 mph 9.2 mph 62 % 0.00 in
04:36 32.9 °F 21.3 °F 30.06 in South 4.7 mph 6.9 mph 62 % 0.00 in
04:41 33.0 °F 21.4 °F 30.06 in SSW 0.2 mph 3.5 mph 62 % 0.00 in
04:46 33.0 °F 21.8 °F 30.07 in SSW 3.1 mph 3.5 mph 63 % 0.00 in
04:51 33.0 °F 21.8 °F 30.07 in SSW 1.5 mph 3.5 mph 63 % 0.00 in
04:56 33.1 °F 21.9 °F 30.07 in SSW 2.7 mph 4.0 mph 63 % 0.00 in
05:01 33.2 °F 22.3 °F 30.07 in South 4.1 mph 6.9 mph 64 % 0.00 in
05:06 33.2 °F 22.3 °F 30.07 in South 4.1 mph 5.0 mph 64 % 0.00 in
05:12 33.2 °F 22.3 °F 30.06 in SW 1.8 mph 4.0 mph 64 % 0.00 in
05:17 33.2 °F 22.7 °F 30.06 in SSW 3.9 mph 6.9 mph 65 % 0.00 in
05:22 33.3 °F 22.8 °F 30.06 in SSW 2.1 mph 4.6 mph 65 % 0.00 in
05:27 33.3 °F 23.2 °F 30.06 in SSE 5.1 mph 8.0 mph 66 % 0.00 in
05:32 33.4 °F 23.6 °F 30.05 in SSW 2.8 mph 8.1 mph 67 % 0.00 in
05:37 33.5 °F 23.7 °F 30.05 in South 3.7 mph 5.8 mph 67 % 0.00 in
05:42 33.6 °F 24.2 °F 30.04 in SW 4.8 mph 8.1 mph 68 % 0.00 in
05:47 33.7 °F 24.6 °F 30.03 in SSW 4.7 mph 11.5 mph 69 % 0.00 in
05:52 33.9 °F 24.8 °F 30.04 in South 4.6 mph 6.9 mph 69 % 0.00 in
05:57 34.0 °F 24.9 °F 30.03 in South 4.6 mph 9.0 mph 69 % 0.00 in
06:02 34.1 °F 25.0 °F 30.03 in SSW 2.7 mph 7.0 mph 69 % 0.00 in
06:07 34.2 °F 25.1 °F 30.03 in SSW 3.2 mph 7.0 mph 69 % 0.00 in
06:12 34.3 °F 25.2 °F 30.03 in SSW 1.9 mph 8.1 mph 69 % 0.00 in
06:17 34.3 °F 25.2 °F 30.02 in SW 1.2 mph 6.9 mph 69 % 0.00 in
06:22 34.4 °F 25.3 °F 30.02 in SW 2.9 mph 3.5 mph 69 % 0.00 in
06:27 34.5 °F 25.4 °F 30.02 in SW 2.4 mph 4.6 mph 69 % 0.00 in
06:32 34.6 °F 25.5 °F 30.02 in South 3.8 mph 6.9 mph 69 % 0.00 in
06:37 34.7 °F 25.6 °F 30.02 in SW 7.0 mph 8.1 mph 69 % 0.00 in
06:43 34.8 °F 25.7 °F 30.02 in South 4.2 mph 7.0 mph 69 % 0.00 in
06:48 34.8 °F 25.7 °F 30.02 in SSW 1.4 mph 5.8 mph 69 % 0.00 in
06:53 35.0 °F 25.9 °F 30.02 in SSW 3.1 mph 5.8 mph 69 % 0.00 in
06:58 35.0 °F 25.5 °F 30.02 in SW 1.7 mph 4.6 mph 68 % 0.00 in
07:03 35.1 °F 25.6 °F 30.02 in SSW 3.7 mph 5.8 mph 68 % 0.00 in
07:08 35.2 °F 25.7 °F 30.03 in WSW 3.6 mph 8.0 mph 68 % 0.00 in
07:13 35.3 °F 25.4 °F 30.03 in SSW 3.5 mph 6.0 mph 67 % 0.00 in
07:18 35.5 °F 25.6 °F 30.02 in SSW 3.1 mph 3.5 mph 67 % 0.00 in
07:23 35.5 °F 25.6 °F 30.02 in SSW 4.9 mph 6.9 mph 67 % 0.00 in
07:28 35.6 °F 25.4 °F 30.02 in SSW 2.0 mph 5.8 mph 66 % 0.00 in
07:33 35.7 °F 25.4 °F 30.01 in SSW 3.5 mph 5.8 mph 66 % 0.00 in
07:38 35.7 °F 25.8 °F 30.01 in South 1.6 mph 4.6 mph 67 % 0.00 in
07:43 35.8 °F 25.9 °F 30.01 in South 2.5 mph 4.6 mph 67 % 0.00 in
07:48 35.9 °F 26.0 °F 30.02 in South 2.8 mph 4.6 mph 67 % 0.00 in
07:53 36.0 °F 26.1 °F 30.01 in South 0.1 mph 1.2 mph 67 % 0.00 in
07:58 36.0 °F 26.1 °F 30.02 in South 0.3 mph 3.5 mph 67 % 0.00 in
08:03 36.1 °F 26.6 °F 30.02 in SW 1.3 mph 3.5 mph 68 % 0.00 in
08:08 36.2 °F 26.6 °F 30.02 in SW 1.3 mph 4.6 mph 68 % 0.00 in
08:13 36.3 °F 27.1 °F 30.01 in South 1.6 mph 3.5 mph 69 % 0.00 in
08:18 36.5 °F 27.6 °F 30.02 in South 2.4 mph 3.5 mph 70 % 0.00 in
08:23 36.7 °F 27.8 °F 30.01 in WSW 3.1 mph 9.2 mph 70 % 0.00 in
08:29 36.9 °F 28.4 °F 30.02 in SSW 1.1 mph 4.6 mph 71 % 0.00 in
08:34 37.1 °F 28.6 °F 30.01 in South 3.8 mph 5.8 mph 71 % 0.00 in
08:39 37.4 °F 28.9 °F 30.01 in SSW 2.1 mph 4.6 mph 71 % 0.00 in
08:44 37.7 °F 29.1 °F 30.00 in SSW 0.8 mph 3.5 mph 71 % 0.00 in
08:49 37.9 °F 29.7 °F 30.00 in SSW 2.0 mph 5.0 mph 72 % 0.00 in
08:54 38.2 °F 30.0 °F 30.00 in South 5.4 mph 11.5 mph 72 % 0.00 in
08:59 38.5 °F 30.6 °F 30.00 in SSW 5.6 mph 7.0 mph 73 % 0.00 in
09:04 38.9 °F 31.0 °F 30.00 in SSW 2.4 mph 5.8 mph 73 % 0.00 in
09:09 39.2 °F 31.3 °F 30.00 in SSW 4.5 mph 7.0 mph 73 % 0.00 in
09:14 39.5 °F 31.6 °F 30.01 in SSW 3.3 mph 4.6 mph 73 % 0.00 in
09:19 39.7 °F 31.8 °F 30.01 in SSW 5.2 mph 6.0 mph 73 % 0.00 in
09:24 39.9 °F 31.9 °F 30.01 in SW 7.5 mph 10.4 mph 73 % 0.00 in
09:29 40.1 °F 31.8 °F 30.01 in SSW 3.5 mph 5.8 mph 72 % 0.00 in
09:34 40.2 °F 31.9 °F 30.01 in SSW 5.5 mph 7.0 mph 72 % 0.00 in
09:39 40.4 °F 31.7 °F 30.00 in SSW 4.6 mph 7.0 mph 71 % 0.00 in
09:44 40.6 °F 31.9 °F 30.00 in South 4.9 mph 6.9 mph 71 % 0.00 in
09:49 40.9 °F 31.9 °F 30.00 in SSW 5.8 mph 8.1 mph 70 % 0.00 in
09:55 41.2 °F 32.2 °F 29.99 in South 5.2 mph 6.0 mph 70 % 0.00 in
10:00 41.5 °F 32.1 °F 29.99 in South 5.1 mph 9.2 mph 69 % 0.00 in
10:05 41.6 °F 31.8 °F 29.99 in South 2.9 mph 5.8 mph 68 % 0.00 in
10:10 41.8 °F 31.6 °F 29.98 in South 4.0 mph 8.1 mph 67 % 0.00 in
10:15 42.0 °F 31.5 °F 29.99 in SSW 5.2 mph 8.1 mph 66 % 0.00 in
10:20 42.3 °F 31.0 °F 29.98 in South 4.6 mph 10.0 mph 64 % 0.00 in
10:25 42.4 °F 31.5 °F 29.98 in South 3.8 mph 6.9 mph 65 % 0.00 in
10:30 42.6 °F 30.9 °F 29.97 in South 2.1 mph 4.6 mph 63 % 0.00 in
10:35 42.7 °F 31.0 °F 29.97 in South 3.9 mph 7.0 mph 63 % 0.00 in
10:40 42.9 °F 30.4 °F 29.97 in SSW 4.6 mph 6.9 mph 61 % 0.00 in
10:45 43.2 °F 30.2 °F 29.97 in SSW 6.8 mph 11.5 mph 60 % 0.00 in
10:50 43.6 °F 30.2 °F 29.96 in SSW 5.0 mph 10.4 mph 59 % 0.00 in
10:55 43.9 °F 30.9 °F 29.95 in South 3.4 mph 5.8 mph 60 % 0.00 in
11:00 44.4 °F 31.0 °F 29.95 in South 4.7 mph 6.9 mph 59 % 0.00 in
11:05 44.9 °F 31.8 °F 29.95 in SSW 3.0 mph 8.1 mph 60 % 0.00 in
11:10 45.4 °F 32.7 °F 29.94 in South 6.3 mph 10.0 mph 61 % 0.00 in
11:15 45.8 °F 33.5 °F 29.94 in SSW 5.2 mph 6.9 mph 62 % 0.00 in
11:20 46.1 °F 34.2 °F 29.93 in South 3.0 mph 9.0 mph 63 % 0.00 in
11:26 46.1 °F 35.0 °F 29.92 in South 7.0 mph 12.0 mph 65 % 0.00 in
11:30 46.1 °F 35.4 °F 29.92 in South 5.0 mph 10.0 mph 66 % 0.00 in
11:35 46.0 °F 35.3 °F 29.91 in SSE 5.0 mph 10.0 mph 66 % 0.00 in
11:40 45.9 °F 35.9 °F 29.91 in South 6.0 mph 12.0 mph 68 % 0.00 in
11:45 45.8 °F 36.2 °F 29.90 in South 3.0 mph 12.0 mph 69 % 0.00 in
11:50 45.7 °F 36.8 °F 29.89 in SSE 5.0 mph 13.0 mph 71 % 0.00 in
11:55 45.8 °F 37.3 °F 29.89 in SSE 7.0 mph 13.0 mph 72 % 0.00 in
12:01 45.9 °F 37.7 °F 29.89 in SSW 3.6 mph 6.0 mph 73 % 0.00 in
12:06 46.2 °F 38.4 °F 29.88 in South 5.0 mph 9.0 mph 74 % 0.00 in
12:10 46.4 °F 38.2 °F 29.88 in South 1.0 mph 5.0 mph 73 % 0.00 in
12:15 46.6 °F 38.4 °F 29.88 in South 5.0 mph 9.0 mph 73 % 0.00 in
12:21 46.7 °F 38.9 °F 29.87 in South 3.0 mph 13.0 mph 74 % 0.00 in
12:26 46.6 °F 38.8 °F 29.86 in South 3.0 mph 6.0 mph 74 % 0.00 in
12:30 46.6 °F 39.1 °F 29.86 in South 5.0 mph 7.0 mph 75 % 0.00 in
12:35 46.6 °F 39.1 °F 29.85 in SSW 3.0 mph 7.0 mph 75 % 0.00 in
12:40 46.7 °F 39.5 °F 29.85 in South 3.0 mph 7.0 mph 76 % 0.00 in
12:45 46.7 °F 39.5 °F 29.85 in South 3.0 mph 7.0 mph 76 % 0.00 in
12:48 46.7 °F 39.5 °F 29.85 in SSW 2.8 mph 5.0 mph 76 % 0.00 in
12:53 47.0 °F 40.2 °F 29.84 in SE 2.3 mph 6.9 mph 77 % 0.00 in
12:58 47.2 °F 40.4 °F 29.84 in SSW 1.7 mph 5.0 mph 77 % 0.00 in
13:03 47.4 °F 40.6 °F 29.83 in SSE 0.3 mph 2.3 mph 77 % 0.00 in
13:08 47.7 °F 40.8 °F 29.83 in SSE 1.8 mph 5.8 mph 77 % 0.00 in
13:13 47.9 °F 41.0 °F 29.82 in South 4.7 mph 6.0 mph 77 % 0.00 in
13:18 48.0 °F 41.1 °F 29.82 in SW 2.9 mph 6.9 mph 77 % 0.00 in
13:23 48.1 °F 41.2 °F 29.82 in SSW 0.4 mph 3.5 mph 77 % 0.00 in
13:28 47.8 °F 38.5 °F 29.82 in NW 4.1 mph 5.0 mph 70 % 0.00 in
13:33 46.9 °F 35.7 °F 29.81 in NNW 1.8 mph 4.6 mph 65 % 0.00 in
13:38 46.0 °F 34.5 °F 29.81 in NW 1.9 mph 4.6 mph 64 % 0.00 in
13:43 45.0 °F 33.9 °F 29.80 in NNW 2.7 mph 4.6 mph 65 % 0.00 in
13:48 44.2 °F 33.2 °F 29.79 in NW 1.6 mph 3.0 mph 65 % 0.00 in
13:53 43.4 °F 33.2 °F 29.79 in NW 1.5 mph 3.0 mph 67 % 0.00 in
13:58 42.8 °F 33.0 °F 29.78 in NW 0.9 mph 2.3 mph 68 % 0.00 in
14:03 42.4 °F 32.2 °F 29.78 in NW 0.8 mph 3.0 mph 67 % 0.00 in
14:09 42.2 °F 32.0 °F 29.78 in Calm   3.5 mph 67 % 0.00 in
14:14 42.0 °F 32.2 °F 29.78 in NW 0.9 mph 3.5 mph 68 % 0.00 in
14:19 41.7 °F 31.9 °F 29.78 in NW 0.2 mph 5.0 mph 68 % 0.00 in
14:24 41.5 °F 31.7 °F 29.77 in NNW 0.2 mph 2.3 mph 68 % 0.00 in
14:29 41.3 °F 31.9 °F 29.77 in Calm     69 % 0.00 in
14:34 41.2 °F 31.8 °F 29.77 in Calm   1.2 mph 69 % 0.00 in
14:39 41.1 °F 31.3 °F 29.76 in Calm   1.2 mph 68 % 0.00 in
14:44 41.0 °F 32.0 °F 29.76 in Calm     70 % 0.00 in
14:49 40.9 °F 32.2 °F 29.76 in Calm     71 % 0.00 in
14:54 40.8 °F 31.8 °F 29.76 in Calm     70 % 0.00 in
14:59 40.7 °F 32.0 °F 29.75 in Calm     71 % 0.00 in
15:04 40.6 °F 31.9 °F 29.75 in Calm     71 % 0.00 in
15:09 40.5 °F 32.2 °F 29.75 in Calm     72 % 0.00 in
15:14 40.4 °F 32.4 °F 29.74 in Calm     73 % 0.00 in
15:19 40.3 °F 32.3 °F 29.74 in Calm     73 % 0.00 in
15:24 40.2 °F 32.6 °F 29.74 in Calm     74 % 0.00 in
15:30 40.0 °F 32.7 °F 29.74 in Calm     75 % 0.00 in
15:35 39.8 °F 32.8 °F 29.73 in NNW 0.1 mph 1.2 mph 76 % 0.00 in
15:40 39.6 °F 33.3 °F 29.72 in NNW 1.5 mph 2.3 mph 78 % 0.00 in
15:45 39.4 °F 33.7 °F 29.73 in NNW 0.2 mph 2.3 mph 80 % 0.00 in
15:50 39.2 °F 33.9 °F 29.71 in Calm   1.2 mph 81 % 0.00 in
15:55 39.1 °F 34.4 °F 29.70 in NNW 1.7 mph 2.3 mph 83 % 0.00 in
16:00 39.1 °F 34.7 °F 29.71 in NNW 1.0 mph 2.3 mph 84 % 0.00 in
16:05 39.0 °F 34.9 °F 29.70 in Calm     85 % 0.00 in
16:10 39.0 °F 34.9 °F 29.70 in Calm   1.2 mph 85 % 0.00 in
16:15 39.0 °F 35.2 °F 29.70 in Calm   1.2 mph 86 % 0.00 in
16:20 39.0 °F 35.2 °F 29.70 in Calm     86 % 0.00 in
16:25 38.9 °F 35.4 °F 29.70 in NNW 0.5 mph 2.0 mph 87 % 0.00 in
16:30 38.9 °F 35.4 °F 29.70 in Calm     87 % 0.00 in
16:35 38.9 °F 35.4 °F 29.69 in Calm   2.3 mph 87 % 0.00 in
16:40 38.9 °F 35.6 °F 29.69 in Calm     88 % 0.00 in
16:45 38.9 °F 35.6 °F 29.69 in Calm     88 % 0.00 in
16:50 38.9 °F 35.6 °F 29.68 in Calm     88 % 0.00 in
16:55 38.9 °F 35.6 °F 29.68 in Calm     88 % 0.00 in
17:00 39.0 °F 35.7 °F 29.67 in Calm     88 % 0.00 in
17:06 39.0 °F 35.7 °F 29.67 in NNW 1.0 mph 3.0 mph 88 % 0.00 in
17:11 39.1 °F 36.1 °F 29.66 in NNW 1.0 mph 7.0 mph 89 % 0.00 in
17:16 40.4 °F 38.5 °F 29.65 in SSE 3.0 mph 7.0 mph 93 % 0.00 in
17:21 41.5 °F 39.9 °F 29.65 in SSE 5.0 mph 7.0 mph 94 % 0.00 in
17:26 42.3 °F 41.0 °F 29.65 in South 1.0 mph 5.0 mph 95 % 0.00 in
17:31 43.3 °F 42.0 °F 29.64 in SSE 2.8 mph 5.8 mph 95 % 0.00 in
17:36 43.9 °F 42.5 °F 29.64 in SSE 2.0 mph 7.0 mph 95 % 0.00 in
17:41 44.2 °F 42.9 °F 29.63 in South 3.0 mph 5.0 mph 95 % 0.00 in
17:46 44.6 °F 43.3 °F 29.64 in South 6.1 mph 6.9 mph 95 % 0.00 in
17:51 44.7 °F 43.7 °F 29.63 in South 3.0 mph 8.0 mph 96 % 0.00 in
17:56 45.0 °F 43.9 °F 29.62 in South 5.0 mph 9.0 mph 96 % 0.00 in
18:01 45.1 °F 43.8 °F 29.62 in South 5.1 mph 8.0 mph 95 % 0.00 in
18:06 45.1 °F 43.8 °F 29.61 in South 2.0 mph 8.0 mph 95 % 0.00 in
18:11 45.3 °F 43.9 °F 29.61 in South 2.0 mph 5.0 mph 95 % 0.00 in
18:16 45.5 °F 44.4 °F 29.61 in South 5.0 mph 9.0 mph 96 % 0.00 in
18:21 45.8 °F 44.7 °F 29.60 in South 5.0 mph 10.0 mph 96 % 0.00 in
18:26 45.9 °F 44.8 °F 29.60 in South 2.0 mph 7.0 mph 96 % 0.00 in
18:31 46.1 °F 45.0 °F 29.60 in South 5.0 mph 10.0 mph 96 % 0.00 in
18:36 46.4 °F 45.3 °F 29.60 in South 6.0 mph 12.0 mph 96 % 0.00 in
18:41 46.7 °F 45.6 °F 29.59 in South 3.9 mph 6.0 mph 96 % 0.01 in
18:46 46.9 °F 45.8 °F 29.59 in SSE 3.0 mph 8.0 mph 96 % 0.01 in
18:51 47.0 °F 45.9 °F 29.59 in SE 4.2 mph 8.1 mph 96 % 0.04 in
18:56 46.9 °F 45.8 °F 29.59 in South 2.0 mph 7.0 mph 96 % 0.00 in
19:01 47.0 °F 45.9 °F 29.58 in SSE 0.7 mph 5.8 mph 96 % 0.05 in
19:06 47.0 °F 45.9 °F 29.58 in South 2.8 mph 5.8 mph 96 % 0.06 in
19:11 46.9 °F 45.8 °F 29.58 in SE 2.0 mph 5.0 mph 96 % 0.06 in
19:16 46.8 °F 45.4 °F 29.57 in SE 2.4 mph 4.6 mph 95 % 0.07 in
19:21 46.8 °F 45.7 °F 29.57 in SE 2.2 mph 3.5 mph 96 % 0.08 in
19:26 46.7 °F 45.3 °F 29.56 in South 3.0 mph 5.8 mph 95 % 0.08 in
19:31 46.6 °F 45.2 °F 29.56 in ESE 3.2 mph 6.9 mph 95 % 0.09 in
19:36 46.5 °F 45.4 °F 29.55 in SSE 0.1 mph 3.5 mph 96 % 0.10 in
19:41 46.4 °F 45.0 °F 29.55 in SE 1.5 mph 3.5 mph 95 % 0.10 in
19:46 46.4 °F 45.0 °F 29.54 in SE 1.1 mph 3.5 mph 95 % 0.10 in
19:51 46.4 °F 45.0 °F 29.54 in SE 2.3 mph 3.5 mph 95 % 0.09 in
19:56 46.4 °F 45.0 °F 29.55 in SSE 4.0 mph 4.6 mph 95 % 0.10 in
20:01 46.4 °F 45.3 °F 29.54 in SE 4.2 mph 7.0 mph 96 % 0.10 in
20:06 46.5 °F 45.4 °F 29.53 in SE 3.4 mph 6.9 mph 96 % 0.10 in
20:11 46.5 °F 45.4 °F 29.53 in SE 4.2 mph 6.0 mph 96 % 0.11 in
20:16 46.7 °F 45.6 °F 29.52 in SE 4.5 mph 9.0 mph 96 % 0.11 in
20:22 46.9 °F 45.8 °F 29.51 in SSE 5.3 mph 8.1 mph 96 % 0.11 in
20:27 47.1 °F 46.0 °F 29.51 in SE 2.1 mph 5.8 mph 96 % 0.12 in
20:32 47.2 °F 46.1 °F 29.51 in SSE 4.7 mph 6.9 mph 96 % 0.13 in
20:37 47.4 °F 46.3 °F 29.51 in SE 4.5 mph 10.4 mph 96 % 0.13 in
20:42 47.6 °F 46.8 °F 29.51 in SSW 3.3 mph 5.8 mph 97 % 0.13 in
20:47 47.6 °F 46.8 °F 29.50 in SSW 2.2 mph 7.0 mph 97 % 0.14 in
20:52 47.7 °F 46.9 °F 29.50 in South 3.8 mph 6.9 mph 97 % 0.14 in
20:57 47.8 °F 47.0 °F 29.49 in SSE 0.8 mph 5.0 mph 97 % 0.14 in
21:02 48.0 °F 47.2 °F 29.49 in South 3.6 mph 6.9 mph 97 % 0.14 in
21:07 48.1 °F 47.3 °F 29.48 in South 2.3 mph 8.1 mph 97 % 0.14 in
21:12 48.2 °F 47.4 °F 29.47 in SE 1.4 mph 3.5 mph 97 % 0.15 in
21:17 48.3 °F 47.5 °F 29.47 in South 1.9 mph 3.5 mph 97 % 0.15 in
21:22 48.3 °F 47.5 °F 29.46 in SE 2.4 mph 3.5 mph 97 % 0.15 in
21:27 48.3 °F 47.5 °F 29.46 in South 1.3 mph 2.0 mph 97 % 0.16 in
21:32 48.3 °F 47.5 °F 29.45 in Calm   1.2 mph 97 % 0.16 in
21:37 48.3 °F 47.5 °F 29.44 in South 1.5 mph 2.3 mph 97 % 0.17 in
21:42 48.3 °F 47.5 °F 29.44 in SSE 1.3 mph 3.5 mph 97 % 0.17 in
21:47 48.4 °F 47.6 °F 29.44 in WNW 2.1 mph 4.0 mph 97 % 0.16 in
21:53 48.4 °F 47.6 °F 29.43 in Calm   2.3 mph 97 % 0.17 in
21:58 48.5 °F 47.7 °F 29.42 in SE 1.5 mph 3.5 mph 97 % 0.18 in
22:03 48.5 °F 47.7 °F 29.41 in SE 0.4 mph 1.2 mph 97 % 0.18 in
22:08 48.5 °F 47.7 °F 29.41 in Calm   1.2 mph 97 % 0.20 in
22:13 48.4 °F 47.6 °F 29.40 in Calm   1.2 mph 97 % 0.22 in
22:18 48.3 °F 47.5 °F 29.39 in Calm     97 % 0.24 in
22:23 48.2 °F 47.4 °F 29.38 in ESE 0.7 mph 2.3 mph 97 % 0.26 in
22:28 48.1 °F 47.3 °F 29.37 in Calm     97 % 0.27 in
22:33 47.9 °F 46.8 °F 29.37 in Calm     96 % 0.27 in
22:38 47.6 °F 46.5 °F 29.37 in NE 0.3 mph 1.2 mph 96 % 0.27 in
22:43 47.2 °F 46.1 °F 29.38 in NE 2.2 mph 3.5 mph 96 % 0.28 in
22:48 46.4 °F 45.0 °F 29.37 in Calm   2.3 mph 95 % 0.30 in
22:53 45.4 °F 44.1 °F 29.37 in NE 0.3 mph 2.0 mph 95 % 0.29 in
22:58 44.7 °F 43.1 °F 29.36 in Calm     94 % 0.29 in
23:03 44.3 °F 42.7 °F 29.36 in Calm     94 % 0.28 in
23:08 43.8 °F 42.2 °F 29.35 in ENE 1.8 mph 3.5 mph 94 % 0.26 in
23:13 43.3 °F 41.7 °F 29.34 in NNE 0.6 mph 4.6 mph 94 % 0.24 in
23:18 42.9 °F 41.3 °F 29.34 in Calm   3.5 mph 94 % 0.22 in
23:24 42.6 °F 41.0 °F 29.34 in ENE 3.2 mph 3.5 mph 94 % 0.18 in
23:29 42.1 °F 40.5 °F 29.34 in NE 1.3 mph 3.5 mph 94 % 0.17 in
23:34 41.9 °F 40.3 °F 29.33 in NE 0.3 mph 2.3 mph 94 % 0.15 in
23:39 41.8 °F 40.5 °F 29.33 in Calm   1.0 mph 95 % 0.13 in
23:44 41.7 °F 40.4 °F 29.34 in Calm   1.2 mph 95 % 0.11 in
23:49 41.6 °F 40.3 °F 29.34 in NW 4.9 mph 8.1 mph 95 % 0.09 in
23:54 41.5 °F 40.2 °F 29.34 in NW 1.7 mph 3.5 mph 95 % 0.08 in
23:59 41.3 °F 40.0 °F 29.34 in West 1.8 mph 3.5 mph 95 % 0.06 in
Crab Meadow Weather
Compliments of Weather Underground - 3 mb

Script developed by  Jim McMurry - jmcmurry@mwt.net Adapted for the template by  Wim van der Kuil - Leuven-Template.eu

Weather Terms: Hail - Precipitation in the form of lumps of ice that form during some thunderstorms.